MST,Max TemperatureF,Mean TemperatureF,Min TemperatureF,Max Dew PointF,MeanDew PointF,Min DewpointF,Max Humidity, Mean Humidity, Min Humidity, Max Sea Level PressureIn, Mean Sea Level PressureIn, Min Sea Level PressureIn, Max VisibilityMiles, Mean VisibilityMiles, Min VisibilityMiles, Max Wind SpeedMPH, Mean Wind SpeedMPH, Max Gust SpeedMPH,PrecipitationIn, CloudCover, Events, WindDirDegrees
2013-2-1,70,56,42,44,40,32,99,62,25,30.21,30.16,30.12,10,10,10,8,5,,0.00,0,,346
2013-2-2,73,58,44,46,41,34,95,60,24,30.26,30.16,30.09,10,10,10,8,4,,0.00,0,,346
2013-2-3,67,61,55,52,46,39,74,59,36,30.09,30.01,29.94,10,10,10,8,3,,0.00,4,,328
2013-2-4,73,62,50,50,46,41,90,62,31,30.03,29.97,29.91,10,10,10,9,4,,0.00,1,,344
2013-2-5,73,60,48,46,43,39,82,57,31,30.02,29.95,29.89,10,10,10,9,5,,0.00,0,,331
2013-2-6,71,60,49,46,44,43,84,60,35,30.00,29.92,29.89,10,10,10,10,5,,0.00,2,,340
2013-2-7,71,58,46,46,42,37,83,58,28,30.10,30.00,29.90,10,10,10,8,3,,0.00,0,,10
2013-2-8,64,54,45,43,32,20,84,46,18,29.90,29.82,29.78,10,10,10,18,7,23,0.00,2,,258
2013-2-9,57,49,41,37,32,24,87,56,30,30.02,29.92,29.81,10,10,10,18,10,18,0.00,4,Rain,269
2013-2-10,59,48,37,36,32,27,93,58,31,30.04,29.99,29.94,10,10,10,13,5,,0.00,1,,275
2013-2-11,51,46,38,39,37,34,97,72,57,30.18,30.05,29.96,10,10,10,15,5,21,0.01,4,Rain,356
2013-2-12,57,44,32,38,32,21,100,67,25,30.32,30.24,30.18,10,10,10,8,4,,0.00,0,,350
2013-2-13,62,49,36,34,28,20,72,54,21,30.24,30.17,30.10,10,10,7,8,5,,0.00,0,,23
2013-2-14,68,52,37,37,31,27,76,49,23,30.16,30.10,30.03,10,10,10,8,5,,0.00,0,,354
2013-2-15,75,59,43,34,24,16,59,28,11,30.24,30.18,30.12,10,10,10,13,6,,0.00,0,,21
2013-2-16,79,61,43,31,21,8,56,29,7,30.25,30.12,29.95,10,10,10,12,6,,0.00,0,,19
2013-2-17,73,58,42,32,24,14,63,32,10,29.94,29.87,29.80,10,10,10,14,7,18,0.00,0,,291
2013-2-18,72,56,41,33,27,22,62,36,15,30.04,29.94,29.88,10,10,10,10,5,,0.00,0,,359
2013-2-19,69,56,42,34,26,19,58,33,15,29.87,29.78,29.64,10,10,10,21,6,,0.00,0,,301
2013-2-20,51,44,37,43,36,30,100,70,47,29.95,29.76,29.64,10,9,6,22,11,28,0.04,5,Rain-Thunderstorm,267
2013-2-21,55,46,37,39,34,32,100,66,44,30.05,29.99,29.94,10,10,10,9,4,,0.00,3,,6
2013-2-22,62,50,38,38,30,18,89,51,18,30.14,30.09,30.02,10,10,10,12,4,,0.00,0,,232
2013-2-23,63,50,36,35,30,26,83,48,24,30.13,29.98,29.82,10,10,10,8,4,,0.00,0,,349
2013-2-24,60,52,44,34,19,4,60,31,11,30.11,29.93,29.85,10,10,10,28,14,34,0.00,2,,347
2013-2-25,63,50,37,26,18,14,51,30,15,30.23,30.12,30.02,10,10,10,13,7,,0.00,0,,325
2013-2-26,67,51,35,26,21,9,67,34,15,30.08,30.00,29.94,10,10,10,13,6,,0.03,0,,22
2013-2-27,65,57,49,22,9,2,31,16,10,30.24,30.17,30.09,10,10,10,22,11,26,0.00,0,,353
2013-2-28,71,55,39,24,13,5,37,21,8,30.31,30.26,30.22,10,10,10,15,8,18,0.00,0,,337